This demonstration page uses our WeatherBlox Daily Observations layout. Learn more.

Left ArrowRight Arrow

41.12389, -100.76542

Hourly Observations for October 7, 2022

Temp ( °F °C ) Dew Point ( °F °C ) Humidity (%) Winds ( mph kmh ) Pressure ( in mb ) Visibility ( mi km ) Precip ( " mm )
12:53 am 00:53 Cloudy 45 7.2 29 -1.7 53 53 NE 6 9 30.46 1032 10 16 0.00 0.00
1:53 am 01:53 Cloudy 43 6.1 31 -0.6 62 62 N 14 22 30.52 1033 10 16 0.00 0.00
2:53 am 02:53 Cloudy with Rain 40 4.4 36 2.2 86 86 NE 6 9 30.53 1034 10 16 0.08 2.03
3:53 am 03:53 Cloudy with Light Rain 41 5 37 2.8 86 86 NE 6 9 30.50 1033 10 16 0.13 3.30
4:53 am 04:53 Cloudy with Light Rain 40 4.4 35 1.7 83 83 NE 10 17 30.51 1033 10 16 0.09 2.29
5:53 am 05:53 Cloudy with Light Rain 39 3.9 35 1.7 86 86 NE 5 7 30.54 1034 10 16 0.04 1.02
6:53 am 06:53 Cloudy with Light Rain 39 3.9 35 1.7 86 86 NNW 3 6 30.57 1035 10 16 0.01 0.25
7:53 am 07:53 Cloudy with Light Rain 39 3.9 36 2.2 89 89 NNW 3 6 30.58 1036 10 16 0.05 1.27
8:53 am 08:53 Cloudy 40 4.4 36 2.2 86 86 NW 7 11 30.60 1036 10 16 0.01 0.13
9:07 am 09:07 Cloudy 39 3.9 35 1.7 86 86 NW 3 6 30.63 1037 10 16 0.00 0.00
9:53 am 09:53 Cloudy 40 4.4 33 0.6 76 76 Calm 30.61 1037 10 16 0.00 0.00
10:53 am 10:53 Cloudy 40 4.4 33 0.6 76 76 Calm 30.61 1037 10 16 0.00 0.00
11:14 am 11:14 Cloudy 40 4.4 32 0 73 73 Calm 30.63 1037 10 16 0.00 0.00
11:53 am 11:53 Cloudy 41 5 33 0.6 73 73 Calm 30.61 1037 10 16 0.00 0.00
12:53 pm 12:53 Cloudy 41 5 34 1.1 76 76 Calm 30.60 1036 10 16 0.00 0.00
1:53 pm 13:53 Cloudy 42 5.6 35 1.7 76 76 Calm 30.59 1036 10 16 0.00 0.00
2:53 pm 14:53 Cloudy 43 6.1 35 1.7 73 73 Calm 30.57 1035 10 16 0.00 0.00
3:02 pm 15:02 Cloudy 43 6.1 34 1.1 70 70 VRB 3 6 30.56 1035 10 16 0.00 0.00
3:42 pm 15:42 Cloudy 44 6.7 34 1.1 67 67 Calm 30.55 1035 10 16 0.00 0.00
3:53 pm 15:53 Cloudy 43 6.1 34 1.1 70 70 Calm 30.55 1035 10 16 0.00 0.00
4:53 pm 16:53 Cloudy 44 6.7 34 1.1 67 67 Calm 30.53 1034 10 16 0.00 0.00
5:53 pm 17:53 Cloudy 45 7.2 34 1.1 65 65 SW 3 6 30.52 1033 10 16 0.00 0.00
6:53 pm 18:53 Cloudy 45 7.2 35 1.7 68 68 Calm 30.51 1033 10 16 0.00 0.00
7:53 pm 19:53 Cloudy 44 6.7 39 3.9 82 82 NW 3 6 30.51 1033 10 16 0.00 0.00
8:53 pm 20:53 Cloudy 44 6.7 39 3.9 82 82 Calm 30.52 1034 10 16 0.00 0.00
9:53 pm 21:53 Cloudy 45 7.2 39 3.9 80 80 Calm 30.52 1034 10 16 0.00 0.00
10:53 pm 22:53 Cloudy 45 7.2 40 4.4 82 82 Calm 30.51 1033 10 16 0.00 0.00
11:53 pm 23:53 Cloudy 45 7.2 39 3.9 80 80 Calm 30.51 1033 10 16 0.00 0.00

Powered by AerisWeather